Tracking 23114 objects as of 15-May-2021
HD Live streaming from Space Station
objects crossing your sky now

COSMOS 1247 DEB

Track COSMOS 1247 DEB now!


NORAD ID: 26786
Int'l Code: 1981-016J
Perigee: 3,177.0 km
Apogee: 36,407.9 km
Inclination: 67.7 °
Period: 701.9 minutes
Semi major axis: 26163 km
RCS: 0.4956 m2 (medium)
Launch date: February 19, 1981
Source: Commonwealth of Independent States (former USSR) (CIS)
Launch site: PLESETSK MISSILE AND SPACE COMPLEX (PKMTR)

Note: This is SATELLITE DEBRIS
aabbcc
Your satellite tracking list
Your tracking list is empty




NASA's NSSDC Master Catalog

Two Line Element Set (TLE):
1 26786U 81016J   21128.30393248  .00000522  00000-0  00000+0 0  9999
2 26786  67.6786 138.0829 6350625  14.8490 357.4747  2.05144398186441
Source of the keplerian elements: AFSPC